| time (UTC) | temp F | wind direction | speed knots | gust knots | rain 1hr in | rain 24hr in | rain mn in | humidity % | barometer mb |
| 20260505062230 | 90 | 67 | 11.3 | 25.2 | 0.02 | 0.00 | 0.04 | 80 | 1009.5 |
| 20260505061230 | 92 | 225 | 6.1 | 13.9 | 0.02 | 0.00 | 0.04 | 78 | 1009.9 |
| 20260505060228 | 95 | 202 | 2.6 | 6.1 | 0.02 | 0.00 | 0.04 | 78 | 1010.0 |
| 20260505055225 | 95 | 112 | 2.6 | 7.0 | 0.02 | 0.00 | 0.04 | 79 | 1010.0 |
| 20260505054224 | 95 | 0 | 6.1 | 13.9 | 0.02 | 0.00 | 0.04 | 80 | 1010.3 |
| 20260505053221 | 95 | 67 | 0.9 | 1.7 | 0.02 | 0.00 | 0.04 | 81 | 1010.4 |
| 20260505052224 | 94 | 112 | 0.9 | 1.7 | 0.02 | 0.00 | 0.04 | 82 | 1010.6 |
| 20260505051219 | 93 | 0 | 0.9 | 2.6 | 0.02 | 0.00 | 0.04 | 80 | 1010.8 |
| 20260505050219 | 94 | 202 | 0.0 | 1.7 | 0.02 | 0.00 | 0.04 | 79 | 1010.9 |
| 20260505041209 | 91 | 67 | 3.5 | 7.8 | 0.02 | 0.00 | 0.04 | 76 | 1011.6 |
| 20260505040207 | 91 | 0 | 10.4 | 23.5 | 0.02 | 0.00 | 0.04 | 78 | 1011.7 |
| 20260505035205 | 90 | 112 | 0.0 | 0.0 | 0.02 | 0.00 | 0.04 | 80 | 1011.7 |
| 20260505034202 | 90 | 270 | 4.3 | 10.4 | 0.02 | 0.00 | 0.04 | 84 | 1011.8 |
| 20260505033200 | 89 | 22 | 6.1 | 14.8 | 0.02 | 0.00 | 0.04 | 84 | 1011.8 |
| 20260505032200 | 89 | 225 | 0.0 | 0.0 | 0.02 | 0.00 | 0.04 | 85 | 1011.9 |
| 20260505031157 | 88 | 112 | 0.0 | 0.0 | 0.02 | 0.00 | 0.04 | 82 | 1012.1 |
| 20260505030155 | 87 | 67 | 0.0 | 0.0 | 0.02 | 0.00 | 0.04 | 83 | 1012.2 |
| 20260505025154 | 88 | 225 | 0.0 | 0.0 | 0.02 | 0.00 | 0.04 | 84 | 1012.2 |
| 20260505024152 | 87 | 112 | 0.0 | 0.9 | 0.02 | 0.00 | 0.04 | 83 | 1012.0 |
| 20260505023151 | 86 | 0 | 0.9 | 2.6 | 0.02 | 0.00 | 0.04 | 82 | 1012.0 |
| 20260505022149 | 86 | 90 | 4.3 | 10.4 | 0.02 | 0.00 | 0.04 | 87 | 1012.0 |
| 20260505021142 | 84 | 0 | 1.7 | 4.3 | 0.02 | 0.00 | 0.04 | 87 | 1011.9 |
| 20260505020139 | 83 | 0 | 21.7 | 49.5 | 0.02 | 0.00 | 0.04 | 88 | 1012.0 |
| 20260505015138 | 83 | 112 | 8.7 | 20.0 | 0.02 | 0.00 | 0.04 | 89 | 1012.0 |
| 20260505014136 | 82 | 112 | 22.6 | 52.1 | 0.02 | 0.00 | 0.04 | 88 | 1011.9 |
| 20260505013135 | 81 | 112 | 1.7 | 4.3 | 0.02 | 0.00 | 0.04 | 88 | 1011.8 |
| 20260505012140 | 81 | 112 | 0.0 | 0.9 | 0.02 | 0.00 | 0.04 | 88 | 1011.5 |
| 20260505011132 | 80 | 112 | 5.2 | 13.0 | 0.02 | 0.00 | 0.04 | 89 | 1011.3 |
| 20260505010130 | 80 | 112 | 0.9 | 2.6 | 0.02 | 0.00 | 0.04 | 89 | 1011.2 |
| 20260505005124 | 79 | 112 | 7.0 | 16.5 | 0.02 | 0.00 | 0.04 | 90 | 1011.0 |
| 20260505004121 | 79 | 112 | 0.0 | 0.0 | 0.02 | 0.00 | 0.04 | 90 | 1010.7 |
| 20260505003120 | 79 | 112 | 10.4 | 23.5 | 0.02 | 0.00 | 0.04 | 89 | 1010.7 |
| 20260505002120 | 79 | 112 | 0.9 | 2.6 | 0.02 | 0.00 | 0.04 | 89 | 1010.6 |
| 20260505001119 | 78 | 112 | 4.3 | 10.4 | 0.02 | 0.00 | 0.04 | 88 | 1010.5 |
| 20260505000119 | 78 | 225 | 2.6 | 7.0 | 0.02 | 0.00 | 0.04 | 89 | 1010.5 |
| 20260504235118 | 78 | 0 | 0.0 | 0.0 | 0.02 | 0.00 | 0.04 | 90 | 1010.4 |
| 20260504234116 | 78 | 0 | 0.9 | 2.6 | 0.02 | 0.00 | 0.04 | 88 | 1010.4 |
| 20260504233115 | 78 | 112 | 2.6 | 6.1 | 0.02 | 0.00 | 0.04 | 87 | 1010.4 |
| 20260504232113 | 78 | 22 | 1.7 | 4.3 | 0.02 | 0.00 | 0.04 | 88 | 1010.4 |
| 20260504231111 | 78 | 112 | 0.9 | 1.7 | 0.02 | 0.00 | 0.04 | 86 | 1010.2 |
| 20260504230108 | 77 | 112 | 0.0 | 0.0 | 0.02 | 0.00 | 0.04 | 86 | 1010.1 |
| 20260504225106 | 78 | 225 | 0.0 | 0.0 | 0.02 | 0.00 | 0.04 | 86 | 1010.1 |
| 20260504224100 | 77 | 0 | 0.0 | 0.0 | 0.02 | 0.00 | 0.04 | 86 | 1010.0 |
| 20260504223058 | 78 | 270 | 0.0 | 0.9 | 0.02 | 0.00 | 0.04 | 86 | 1009.9 |
| 20260504222056 | 78 | 0 | 0.0 | 0.0 | 0.02 | 0.00 | 0.04 | 86 | 1009.8 |
| 20260504221052 | 77 | 22 | 0.0 | 0.0 | 0.02 | 0.00 | 0.04 | 86 | 1009.8 |
| 20260504220048 | 77 | 22 | 0.0 | 0.0 | 0.02 | 0.00 | 0.04 | 86 | 1009.7 |
| 20260504215045 | 77 | 0 | 0.0 | 0.0 | 0.02 | 0.00 | 0.04 | 86 | 1009.8 |
| 20260504214043 | 78 | 0 | 0.0 | 0.0 | 0.02 | 0.00 | 0.04 | 86 | 1009.8 |
| 20260504213046 | 78 | 22 | 2.6 | 7.0 | 0.02 | 0.00 | 0.04 | 86 | 1009.7 |
| 20260504212040 | 77 | 90 | 1.7 | 3.5 | 0.02 | 0.00 | 0.04 | 87 | 1009.8 |
| 20260504211038 | 77 | 225 | 0.0 | 0.0 | 0.02 | 0.00 | 0.04 | 88 | 1009.5 |
| 20260504210038 | 77 | 112 | 2.6 | 6.1 | 0.02 | 0.00 | 0.04 | 89 | 1009.4 |
| 20260504205036 | 77 | 0 | 2.6 | 6.1 | 0.02 | 0.00 | 0.04 | 90 | 1009.5 |
| 20260504204035 | 78 | 112 | 12.2 | 26.9 | 0.02 | 0.00 | 0.04 | 88 | 1009.5 |
| 20260504203033 | 77 | 112 | 7.8 | 17.4 | 0.02 | 0.00 | 0.04 | 86 | 1009.5 |
| 20260504202031 | 78 | 0 | 0.0 | 0.0 | 0.02 | 0.00 | 0.04 | 86 | 1009.3 |
| 20260504201030 | 78 | 112 | 0.0 | 0.0 | 0.02 | 0.00 | 0.04 | 86 | 1009.3 |
| 20260504200028 | 78 | 112 | 7.0 | 15.6 | 0.02 | 0.00 | 0.04 | 86 | 1009.5 |
| 20260504195027 | 78 | 225 | 0.0 | 0.0 | 0.02 | 0.00 | 0.04 | 86 | 1009.6 |
| 20260504194028 | 79 | 22 | 0.9 | 3.5 | 0.02 | 0.00 | 0.04 | 86 | 1009.8 |
| 20260504193024 | 78 | 112 | 1.7 | 4.3 | 0.02 | 0.00 | 0.04 | 86 | 1009.7 |
| 20260504192021 | 78 | 202 | 0.0 | 0.0 | 0.02 | 0.00 | 0.04 | 85 | 1009.2 |
| 20260504191021 | 78 | 22 | 2.6 | 7.0 | 0.02 | 0.00 | 0.04 | 87 | 1009.8 |
| 20260504190019 | 77 | 225 | 0.0 | 0.0 | 0.02 | 0.00 | 0.04 | 85 | 1009.8 |
| 20260504185017 | 78 | 225 | 0.0 | 0.0 | 0.02 | 0.00 | 0.04 | 84 | 1009.9 |
| 20260504184015 | 78 | 0 | 1.7 | 4.3 | 0.02 | 0.00 | 0.04 | 84 | 1010.0 |
| 20260504183007 | 78 | 90 | 2.6 | 7.0 | 0.02 | 0.00 | 0.04 | 85 | 1009.9 |
| 20260504182005 | 78 | 90 | 8.7 | 20.0 | 0.02 | 0.00 | 0.04 | 85 | 1010.0 |
| 20260504181003 | 79 | 0 | 0.0 | 0.0 | 0.02 | 0.00 | 0.04 | 83 | 1010.4 |
| 20260504180002 | 78 | 22 | 0.0 | 0.0 | 0.02 | 0.00 | 0.04 | 84 | 1010.5 |
| 20260504175008 | 78 | 22 | 0.9 | 3.5 | 0.02 | 0.00 | 0.04 | 83 | 1010.9 |
| 20260504174001 | 77 | 0 | 0.0 | 0.0 | 0.02 | 0.00 | 0.02 | 83 | 1010.9 |
| 20260504173000 | 77 | 225 | 0.0 | 0.0 | 0.01 | 0.00 | 0.02 | 83 | 1011.1 |
| 20260504172000 | 79 | 22 | 2.6 | 7.0 | 0.01 | 0.00 | 0.02 | 83 | 1011.5 |
| 20260504170958 | 78 | 90 | 0.0 | 0.0 | 0.01 | 0.00 | 0.00 | 82 | 1011.6 |
| 20260504150934 | 86 | 22 | 0.0 | 0.0 | 0.00 | 0.00 | 0.00 | 85 | 1011.9 |
| 20260504140911 | 87 | 112 | 0.0 | 0.0 | 0.00 | 0.00 | 0.00 | 86 | 1010.6 |
| 20260504081014 | 95 | 67 | 0.0 | 0.0 | 0.00 | 0.00 | 0.00 | 74 | 1007.9 |